Terminal Aerodrome Forecast
Issued by NWS Glasgow, MT

Home | Current Version | Previous Version | Text Only | Print | Product List | Glossary On
Versions: 1 2 3 4 5 6 7 8 9 10 11 12 13 14 15 16 17 18 19 20
000
FTUS45 KGGW 300500 AAA
TAFGGW
TAF AMD
KGGW 300558Z 3006/3106 VRB06KT P6SM VCSH SCT060 BKN100
      TEMPO 3006/3007 32014G24KT
     FM300900 VRB04KT P6SM FEW250
     FM301600 30011KT P6SM FEW250
     FM310300 VRB05KT P6SM FEW250=

USA.gov is the U.S. government's official web portal to all federal, state and local government web resources and services.